TVF2696 LPPT-LPMA

Flight info

Callsign TVF2696
Flight time 1h 27m
Altitude 29000
Route ULVOT1X ULVOT DCT GALPA DCT RAKUN RAKUN1P
Aircraft B738/M-SDE2E3FGHIRWXY/LB1

Departure

Time 2026-05-07 17:43
Airport Lisbon Humberto Delgado Airport (LPPT)

Arrival

Time 2026-05-07 19:10
Airport Cristiano Ronaldo International Airport (LPMA)
Time Latitude Longitude Altitude Speed Heading
2026-05-07 16:53 38.76448 -9.13832 354 ft 0 kts 168°
2026-05-07 17:30 38.76449 -9.13832 347 ft 2 kts 168°
2026-05-07 17:30 38.76474 -9.13839 348 ft 4 kts 169°
2026-05-07 17:31 38.76500 -9.13841 348 ft 4 kts 194°
2026-05-07 17:31 38.76522 -9.13826 352 ft 4 kts 237°
2026-05-07 17:31 38.76528 -9.13808 350 ft 1 kts 258°
2026-05-07 17:31 38.76528 -9.13806 349 ft 0 kts 258°
2026-05-07 17:37 38.76528 -9.13807 349 ft 1 kts 258°
2026-05-07 17:37 38.76527 -9.13814 351 ft 2 kts 258°
2026-05-07 17:38 38.76522 -9.13847 349 ft 2 kts 259°
2026-05-07 17:38 38.76520 -9.13862 350 ft 2 kts 260°
2026-05-07 17:38 38.76517 -9.13888 346 ft 5 kts 268°
2026-05-07 17:39 38.76545 -9.13933 346 ft 9 kts 332°
2026-05-07 17:39 38.76553 -9.14016 351 ft 13 kts 233°
2026-05-07 17:39 38.76499 -9.14122 353 ft 16 kts 254°
2026-05-07 17:39 38.76516 -9.14244 335 ft 6 kts 293°
2026-05-07 17:40 38.76533 -9.14294 334 ft 0 kts 293°
2026-05-07 17:40 38.76535 -9.14300 335 ft 0 kts 293°
2026-05-07 17:41 38.76537 -9.14304 335 ft 2 kts 294°
2026-05-07 17:41 38.76539 -9.14309 335 ft 1 kts 294°
2026-05-07 17:41 38.76540 -9.14312 335 ft 2 kts 294°
2026-05-07 17:41 38.76562 -9.14368 332 ft 13 kts 304°
2026-05-07 17:42 38.76628 -9.14398 335 ft 9 kts 21°
2026-05-07 17:42 38.76827 -9.14295 340 ft 63 kts 23°
2026-05-07 17:42 38.77435 -9.13969 362 ft 124 kts 21°
2026-05-07 17:42 38.78404 -9.13465 408 ft 172 kts 18°
2026-05-07 17:43 38.79520 -9.12784 993 ft 182 kts 20°
2026-05-07 17:43 38.80606 -9.11974 1898 ft 174 kts 24°
2026-05-07 17:43 38.81666 -9.11239 2653 ft 176 kts 23°
2026-05-07 17:43 38.82772 -9.10520 3300 ft 181 kts 21°
2026-05-07 17:44 38.83930 -9.09771 3894 ft 194 kts 25°
2026-05-07 17:44 38.85177 -9.08920 4377 ft 216 kts 28°
2026-05-07 17:44 38.86454 -9.07723 4620 ft 240 kts 49°
2026-05-07 17:44 38.87308 -9.05840 5060 ft 248 kts 75°
2026-05-07 17:45 38.87672 -9.03636 5604 ft 262 kts 85°
2026-05-07 17:45 38.87645 -9.01287 6261 ft 263 kts 109°
2026-05-07 17:45 38.86838 -8.99235 7097 ft 256 kts 133°
2026-05-07 17:45 38.85560 -8.97669 7850 ft 256 kts 150°
2026-05-07 17:46 38.83868 -8.96896 8430 ft 265 kts 176°
2026-05-07 17:46 38.82060 -8.97275 9202 ft 268 kts 205°
2026-05-07 17:46 38.80604 -8.98766 10001 ft 272 kts 228°
2026-05-07 17:46 38.79398 -9.00645 10733 ft 277 kts 229°
2026-05-07 17:47 38.78121 -9.02609 10963 ft 300 kts 228°
2026-05-07 17:47 38.76720 -9.04725 11154 ft 323 kts 227°
2026-05-07 17:47 38.75206 -9.06978 11327 ft 344 kts 227°
2026-05-07 17:47 38.73585 -9.09363 11483 ft 365 kts 227°
2026-05-07 17:48 38.71883 -9.11844 11700 ft 380 kts 227°
2026-05-07 17:48 38.70713 -9.13540 12028 ft 385 kts 227°
2026-05-07 17:48 38.68926 -9.16121 12623 ft 389 kts 227°
2026-05-07 17:48 38.67120 -9.18720 13249 ft 392 kts 227°
2026-05-07 17:49 38.65297 -9.21333 13851 ft 396 kts 226°
2026-05-07 17:49 38.63458 -9.23964 14427 ft 398 kts 226°
2026-05-07 17:49 38.61609 -9.26605 15010 ft 399 kts 226°
2026-05-07 17:49 38.59755 -9.29251 15590 ft 401 kts 226°
2026-05-07 17:50 38.57887 -9.31912 16153 ft 403 kts 226°
2026-05-07 17:50 38.56010 -9.34584 16704 ft 405 kts 226°
2026-05-07 17:50 38.54122 -9.37270 17237 ft 407 kts 226°
2026-05-07 17:50 38.52225 -9.39965 17757 ft 409 kts 226°
2026-05-07 17:51 38.50316 -9.42676 18279 ft 411 kts 227°
2026-05-07 17:51 38.48404 -9.45388 18768 ft 411 kts 227°
2026-05-07 17:51 38.46489 -9.48105 19251 ft 412 kts 227°
2026-05-07 17:51 38.44573 -9.50818 19693 ft 413 kts 227°
2026-05-07 17:52 38.42639 -9.53556 20055 ft 416 kts 227°
2026-05-07 17:52 38.40693 -9.56306 20415 ft 419 kts 227°
2026-05-07 17:52 38.38734 -9.59072 20792 ft 422 kts 227°
2026-05-07 17:52 38.36765 -9.61853 21161 ft 424 kts 227°
2026-05-07 17:53 38.34780 -9.64651 21517 ft 426 kts 227°
2026-05-07 17:53 38.32788 -9.67458 21858 ft 428 kts 227°
2026-05-07 17:53 38.30783 -9.70279 22191 ft 431 kts 227°
2026-05-07 17:53 38.28766 -9.73116 22514 ft 433 kts 227°
2026-05-07 17:54 38.26742 -9.75961 22816 ft 435 kts 227°
2026-05-07 17:54 38.24706 -9.78819 23103 ft 437 kts 227°
2026-05-07 17:54 38.22655 -9.81695 23425 ft 438 kts 227°
2026-05-07 17:54 38.20605 -9.84569 23725 ft 439 kts 227°
2026-05-07 17:55 38.18550 -9.87447 24029 ft 440 kts 227°
2026-05-07 17:55 38.16493 -9.90324 24284 ft 441 kts 227°
2026-05-07 17:55 38.14426 -9.93212 24520 ft 442 kts 227°
2026-05-07 17:55 38.12352 -9.96108 24757 ft 444 kts 227°
2026-05-07 17:56 38.10275 -9.99007 25000 ft 445 kts 227°
2026-05-07 17:56 38.08188 -10.01916 25239 ft 446 kts 227°
2026-05-07 17:56 38.06098 -10.04828 25474 ft 447 kts 227°
2026-05-07 17:56 38.03999 -10.07748 25714 ft 447 kts 227°
2026-05-07 17:57 38.01906 -10.10658 26016 ft 446 kts 227°
2026-05-07 17:57 38.00520 -10.12583 26249 ft 445 kts 227°
2026-05-07 17:57 37.97737 -10.16445 26713 ft 442 kts 227°
2026-05-07 17:57 37.95665 -10.19317 27041 ft 441 kts 227°
2026-05-07 17:58 37.93619 -10.22151 27410 ft 439 kts 227°
2026-05-07 17:58 37.91561 -10.24998 27824 ft 436 kts 227°
2026-05-07 17:58 37.89517 -10.27824 28185 ft 435 kts 227°
2026-05-07 17:58 37.87471 -10.30649 28497 ft 435 kts 227°
2026-05-07 17:59 37.85428 -10.33469 28826 ft 434 kts 227°
2026-05-07 17:59 37.83390 -10.36279 29189 ft 433 kts 227°
2026-05-07 17:59 37.81358 -10.39078 29570 ft 431 kts 227°
2026-05-07 17:59 37.79330 -10.41869 29932 ft 430 kts 227°
2026-05-07 18:00 37.77306 -10.44652 30243 ft 429 kts 227°
2026-05-07 18:00 37.75296 -10.47417 30608 ft 426 kts 227°
2026-05-07 18:00 37.73299 -10.50158 31028 ft 422 kts 227°
2026-05-07 18:00 37.71318 -10.52874 31432 ft 418 kts 227°
2026-05-07 18:01 37.69364 -10.55552 31887 ft 413 kts 227°
2026-05-07 18:01 37.67425 -10.58206 32288 ft 409 kts 226°
2026-05-07 18:01 37.65501 -10.60839 32625 ft 407 kts 226°
2026-05-07 18:01 37.63583 -10.63461 32944 ft 405 kts 226°
2026-05-07 18:02 37.59793 -10.68635 33650 ft 400 kts 226°
2026-05-07 18:02 37.57911 -10.71201 33984 ft 397 kts 226°
2026-05-07 18:02 37.56038 -10.73753 34214 ft 397 kts 226°
2026-05-07 18:03 37.54164 -10.76304 34366 ft 398 kts 226°
2026-05-07 18:03 37.52279 -10.78868 34491 ft 399 kts 226°
2026-05-07 18:03 37.50392 -10.81433 34647 ft 399 kts 226°
2026-05-07 18:03 37.48507 -10.83994 34852 ft 398 kts 226°
2026-05-07 18:04 37.46633 -10.86536 34941 ft 399 kts 226°
2026-05-07 18:04 37.42855 -10.91658 34942 ft 397 kts 226°
2026-05-07 18:05 37.39123 -10.96710 34965 ft 394 kts 225°
2026-05-07 18:05 37.35397 -11.01744 34958 ft 393 kts 225°
2026-05-07 18:06 37.31674 -11.06767 34957 ft 392 kts 225°
2026-05-07 18:06 37.27958 -11.11773 34956 ft 392 kts 225°
2026-05-07 18:07 37.24230 -11.16787 34952 ft 393 kts 225°
2026-05-07 18:07 37.20496 -11.21801 34955 ft 394 kts 225°
2026-05-07 18:08 37.16778 -11.26786 34940 ft 394 kts 225°
2026-05-07 18:08 37.13029 -11.31806 34973 ft 394 kts 225°
2026-05-07 18:09 37.09272 -11.36827 34964 ft 395 kts 225°
2026-05-07 18:09 37.05515 -11.41842 34952 ft 395 kts 225°
2026-05-07 18:10 37.01753 -11.46854 34954 ft 395 kts 225°
2026-05-07 18:10 36.97990 -11.51861 34958 ft 395 kts 225°
2026-05-07 18:11 36.94221 -11.56868 34955 ft 395 kts 225°
2026-05-07 18:11 36.90455 -11.61864 34936 ft 395 kts 225°
2026-05-07 18:12 36.86686 -11.66854 34948 ft 395 kts 225°
2026-05-07 18:12 36.82940 -11.71808 34955 ft 395 kts 225°
2026-05-07 18:13 36.79167 -11.76790 34955 ft 395 kts 225°
2026-05-07 18:13 36.75387 -11.81772 34954 ft 395 kts 225°
2026-05-07 18:14 36.71605 -11.86749 34953 ft 395 kts 225°
2026-05-07 18:14 36.67822 -11.91721 34953 ft 395 kts 224°
2026-05-07 18:15 36.64035 -11.96691 34956 ft 395 kts 224°
2026-05-07 18:15 36.60244 -12.01657 34952 ft 395 kts 224°
2026-05-07 18:16 36.56456 -12.06613 34962 ft 396 kts 224°
2026-05-07 18:16 36.52659 -12.11573 34958 ft 395 kts 224°
2026-05-07 18:17 36.48865 -12.16521 34957 ft 395 kts 224°
2026-05-07 18:17 36.45070 -12.21463 34952 ft 395 kts 224°
2026-05-07 18:18 36.41279 -12.26392 34953 ft 395 kts 224°
2026-05-07 18:18 36.37511 -12.31284 34953 ft 395 kts 224°
2026-05-07 18:19 36.33714 -12.36206 34937 ft 394 kts 224°
2026-05-07 18:19 36.29922 -12.41115 34996 ft 394 kts 224°
2026-05-07 18:20 36.26117 -12.46032 34967 ft 395 kts 224°
2026-05-07 18:20 36.22306 -12.50950 34959 ft 396 kts 224°
2026-05-07 18:21 36.18490 -12.55867 34950 ft 396 kts 224°
2026-05-07 18:21 36.14673 -12.60779 34954 ft 396 kts 223°
2026-05-07 18:22 36.10851 -12.65689 34952 ft 396 kts 223°
2026-05-07 18:22 36.07031 -12.70589 34950 ft 396 kts 223°
2026-05-07 18:23 36.03209 -12.75485 34943 ft 395 kts 224°
2026-05-07 18:23 35.99387 -12.80373 34956 ft 396 kts 224°
2026-05-07 18:24 35.95581 -12.85233 34953 ft 396 kts 224°
2026-05-07 18:24 35.91754 -12.90114 34956 ft 396 kts 224°
2026-05-07 18:25 35.87923 -12.94992 34956 ft 396 kts 224°
2026-05-07 18:25 35.84090 -12.99865 34956 ft 396 kts 224°
2026-05-07 18:26 35.80257 -13.04732 34956 ft 396 kts 224°
2026-05-07 18:26 35.76419 -13.09596 34946 ft 395 kts 224°
2026-05-07 18:27 35.72587 -13.14447 35000 ft 395 kts 224°
2026-05-07 18:27 35.68748 -13.19300 34965 ft 395 kts 224°
2026-05-07 18:28 35.64906 -13.24148 34958 ft 395 kts 224°
2026-05-07 18:28 35.61065 -13.28988 34959 ft 395 kts 224°
2026-05-07 18:29 35.57226 -13.33820 34962 ft 395 kts 224°
2026-05-07 18:29 35.53382 -13.38650 34961 ft 395 kts 224°
2026-05-07 18:30 35.49535 -13.43477 34963 ft 395 kts 224°
2026-05-07 18:30 35.45719 -13.48258 34958 ft 395 kts 224°
2026-05-07 18:31 35.41870 -13.53073 34972 ft 396 kts 224°
2026-05-07 18:31 35.38012 -13.57893 34965 ft 396 kts 224°
2026-05-07 18:32 35.34150 -13.62710 34961 ft 396 kts 224°
2026-05-07 18:32 35.30283 -13.67527 34961 ft 396 kts 224°
2026-05-07 18:33 35.26415 -13.72338 34970 ft 396 kts 224°
2026-05-07 18:33 35.22546 -13.77144 34964 ft 396 kts 224°
2026-05-07 18:34 35.18672 -13.81949 34964 ft 397 kts 224°
2026-05-07 18:34 35.14798 -13.86747 35000 ft 397 kts 224°
2026-05-07 18:35 35.10897 -13.91570 34975 ft 400 kts 224°
2026-05-07 18:35 35.07008 -13.96373 34966 ft 401 kts 224°
2026-05-07 18:36 35.03078 -14.01219 34958 ft 401 kts 224°
2026-05-07 18:36 34.99784 -14.05277 34964 ft 402 kts 224°
2026-05-07 18:37 34.95846 -14.10119 34968 ft 402 kts 224°
2026-05-07 18:37 34.91932 -14.14926 34933 ft 402 kts 224°
2026-05-07 18:38 34.87996 -14.19753 34958 ft 401 kts 224°
2026-05-07 18:38 34.84052 -14.24582 34968 ft 403 kts 224°
2026-05-07 18:39 34.80082 -14.29436 34962 ft 405 kts 224°
2026-05-07 18:39 34.76094 -14.34305 34972 ft 407 kts 224°
2026-05-07 18:40 34.72096 -14.39180 34969 ft 408 kts 224°
2026-05-07 18:40 34.68088 -14.44060 34964 ft 408 kts 224°
2026-05-07 18:41 34.64077 -14.48935 34968 ft 408 kts 224°
2026-05-07 18:41 34.60069 -14.53801 34959 ft 407 kts 225°
2026-05-07 18:42 34.56067 -14.58652 34982 ft 407 kts 225°
2026-05-07 18:42 34.52049 -14.63515 34970 ft 409 kts 225°
2026-05-07 18:43 34.48011 -14.68396 34966 ft 411 kts 225°
2026-05-07 18:43 34.43953 -14.73293 34972 ft 412 kts 225°
2026-05-07 18:44 34.39889 -14.78191 34974 ft 412 kts 225°
2026-05-07 18:44 34.35819 -14.83089 34966 ft 413 kts 225°
2026-05-07 18:45 34.31748 -14.87981 34959 ft 412 kts 226°
2026-05-07 18:45 34.27679 -14.92863 34965 ft 412 kts 225°
2026-05-07 18:46 34.23598 -14.97753 34967 ft 414 kts 226°
2026-05-07 18:46 34.19490 -15.02668 34974 ft 416 kts 226°
2026-05-07 18:47 34.15402 -15.07552 34972 ft 417 kts 226°
2026-05-07 18:47 34.11271 -15.12480 34969 ft 418 kts 226°
2026-05-07 18:48 34.07135 -15.17407 34967 ft 418 kts 226°
2026-05-07 18:48 34.02995 -15.22332 34769 ft 421 kts 227°
2026-05-07 18:48 34.00910 -15.24809 34369 ft 417 kts 227°
2026-05-07 18:49 33.98844 -15.27262 33532 ft 419 kts 227°
2026-05-07 18:49 33.96772 -15.29720 32786 ft 419 kts 227°
2026-05-07 18:49 33.94699 -15.32178 32069 ft 418 kts 227°
2026-05-07 18:49 33.92624 -15.34637 31338 ft 418 kts 227°
2026-05-07 18:50 33.90547 -15.37096 30604 ft 419 kts 227°
2026-05-07 18:50 33.88465 -15.39559 29821 ft 420 kts 227°
2026-05-07 18:50 33.86379 -15.42026 28894 ft 421 kts 227°
2026-05-07 18:50 33.84283 -15.44502 28023 ft 422 kts 227°
2026-05-07 18:51 33.82187 -15.46977 27150 ft 423 kts 227°
2026-05-07 18:51 33.80082 -15.49461 26260 ft 425 kts 227°
2026-05-07 18:51 33.77970 -15.51949 25560 ft 422 kts 228°
2026-05-07 18:51 33.75879 -15.54412 24901 ft 419 kts 228°
2026-05-07 18:52 33.73805 -15.56851 24243 ft 416 kts 228°
2026-05-07 18:52 33.71742 -15.59277 23622 ft 413 kts 228°
2026-05-07 18:52 33.69692 -15.61687 22901 ft 411 kts 228°
2026-05-07 18:52 33.67657 -15.64079 22228 ft 407 kts 228°
2026-05-07 18:53 33.65643 -15.66441 21578 ft 403 kts 230°
2026-05-07 18:53 33.63634 -15.68801 20948 ft 408 kts 229°
2026-05-07 18:53 33.61585 -15.71210 20301 ft 416 kts 229°
2026-05-07 18:53 33.59523 -15.73626 19648 ft 413 kts 229°
2026-05-07 18:54 33.57478 -15.76016 19003 ft 408 kts 229°
2026-05-07 18:54 33.55457 -15.78377 18369 ft 404 kts 229°
2026-05-07 18:54 33.53454 -15.80724 17561 ft 402 kts 229°
2026-05-07 18:54 33.51459 -15.83063 16804 ft 399 kts 229°
2026-05-07 18:55 33.49485 -15.85378 16140 ft 395 kts 229°
2026-05-07 18:55 33.47534 -15.87666 15494 ft 390 kts 229°
2026-05-07 18:55 33.45602 -15.89930 14835 ft 387 kts 229°
2026-05-07 18:55 33.43706 -15.92151 14131 ft 385 kts 229°
2026-05-07 18:56 33.41780 -15.94405 13712 ft 377 kts 229°
2026-05-07 18:56 33.39974 -15.96511 13723 ft 363 kts 229°
2026-05-07 18:56 33.38133 -15.98668 13748 ft 379 kts 229°
2026-05-07 18:56 33.36222 -16.00909 13752 ft 388 kts 229°
2026-05-07 18:57 33.34293 -16.03164 13743 ft 387 kts 229°
2026-05-07 18:57 33.32368 -16.05409 13742 ft 386 kts 229°
2026-05-07 18:57 33.30448 -16.07645 13738 ft 385 kts 229°
2026-05-07 18:57 33.28528 -16.09880 13737 ft 385 kts 229°
2026-05-07 18:58 33.26608 -16.12115 13735 ft 385 kts 229°
2026-05-07 18:58 33.24686 -16.14350 13737 ft 386 kts 229°
2026-05-07 18:58 33.22761 -16.16588 13736 ft 386 kts 229°
2026-05-07 18:58 33.20839 -16.18822 13735 ft 386 kts 229°
2026-05-07 18:59 33.18908 -16.21064 13722 ft 387 kts 228°
2026-05-07 18:59 33.16977 -16.23305 13710 ft 387 kts 228°
2026-05-07 18:59 33.15059 -16.25527 13546 ft 379 kts 228°
2026-05-07 18:59 33.13183 -16.27698 12943 ft 376 kts 229°
2026-05-07 19:00 33.11308 -16.29870 12165 ft 376 kts 228°
2026-05-07 19:00 33.09433 -16.32039 11427 ft 375 kts 228°
2026-05-07 19:00 33.07569 -16.34193 10864 ft 371 kts 228°
2026-05-07 19:00 33.05724 -16.36324 10224 ft 368 kts 228°
2026-05-07 19:01 33.03892 -16.38443 9569 ft 365 kts 227°
2026-05-07 19:01 33.02078 -16.40540 8956 ft 358 kts 227°
2026-05-07 19:01 33.00316 -16.42571 8081 ft 349 kts 227°
2026-05-07 19:01 32.98575 -16.44581 7076 ft 347 kts 227°
2026-05-07 19:02 32.96857 -16.46564 6143 ft 342 kts 226°
2026-05-07 19:02 32.95157 -16.48525 5141 ft 339 kts 226°
2026-05-07 19:02 32.93453 -16.50489 4197 ft 344 kts 225°
2026-05-07 19:02 32.91729 -16.52438 3566 ft 337 kts 223°
2026-05-07 19:03 32.90007 -16.54267 3183 ft 324 kts 222°
2026-05-07 19:03 32.88359 -16.56001 3052 ft 310 kts 223°
2026-05-07 19:03 32.86790 -16.57662 2992 ft 294 kts 223°
2026-05-07 19:03 32.85300 -16.59234 2984 ft 279 kts 221°
2026-05-07 19:04 32.83779 -16.60572 2991 ft 265 kts 216°
2026-05-07 19:04 32.82313 -16.61753 2998 ft 251 kts 216°
2026-05-07 19:04 32.80907 -16.62891 2991 ft 238 kts 217°
2026-05-07 19:04 32.79580 -16.63971 2978 ft 225 kts 218°
2026-05-07 19:05 32.78326 -16.64999 2982 ft 212 kts 218°
2026-05-07 19:05 32.77135 -16.65979 2997 ft 208 kts 218°
2026-05-07 19:05 32.75945 -16.66963 3002 ft 208 kts 218°
2026-05-07 19:05 32.74762 -16.67940 2999 ft 207 kts 218°
2026-05-07 19:06 32.73588 -16.68910 3001 ft 205 kts 218°
2026-05-07 19:06 32.71158 -16.70903 2451 ft 211 kts 218°
2026-05-07 19:06 32.70007 -16.71853 2408 ft 200 kts 219°
2026-05-07 19:07 32.68891 -16.72848 2124 ft 200 kts 220°
2026-05-07 19:07 32.67796 -16.73821 1928 ft 190 kts 220°
2026-05-07 19:07 32.66776 -16.74731 1745 ft 181 kts 223°
2026-05-07 19:07 32.65810 -16.75686 1401 ft 179 kts 224°
2026-05-07 19:08 32.64924 -16.76696 1173 ft 173 kts 232°
2026-05-07 19:08 32.64418 -16.77919 918 ft 163 kts 261°
2026-05-07 19:08 32.64650 -16.79206 577 ft 165 kts 300°
2026-05-07 19:08 32.65433 -16.80132 378 ft 158 kts 327°
2026-05-07 19:09 32.66536 -16.80444 486 ft 175 kts
2026-05-07 19:09 32.67638 -16.79902 499 ft 170 kts 36°
2026-05-07 19:09 32.68494 -16.78963 355 ft 165 kts 44°
2026-05-07 19:09 32.69294 -16.78024 194 ft 156 kts 44°
2026-05-07 19:10 32.69898 -16.77330 187 ft 40 kts 296°
2026-05-07 19:10 32.69922 -16.77310 186 ft 0 kts 357°
2026-05-07 19:10 32.69953 -16.77276 191 ft 10 kts 57°
2026-05-07 19:10 32.69935 -16.77190 187 ft 15 kts 149°
2026-05-07 19:11 32.69805 -16.77222 180 ft 25 kts 223°
2026-05-07 19:11 32.69667 -16.77390 168 ft 30 kts 226°
2026-05-07 19:11 32.69574 -16.77487 168 ft 6 kts 182°
2026-05-07 19:11 32.69538 -16.77463 168 ft 6 kts 136°
2026-05-07 19:12 32.69522 -16.77446 168 ft 0 kts 138°